Vertical_Velocity
0 0 -2 -2 -2 -2 1 2 1 -0 -0 0 1 -1 1 -1 0 0 -1 0 2 -0 -5 2 1 -1 1 -1 -1 -5 -8 -6 -3 -6 -2 -1 -1 -3 -3 -1 2 0 1 0 -2 -2 -2 2 -10 -9 4 -12 6 -0
-1 2 -3 -1 -7 -0 0 0 1 -0 0 1 -0 -0 -1 -0 1 2 1 -2 1 0 -4 2 1 5 0 3 1 1 -1 -1 2 -2 -2 0 0 -1 -1 -3 -2 -9 -6 -4 3 1 4 -1 3 3 6 11 -6 4
1 1 -2 -7 -6 -1 -2 1 1 -1 1 1 1 1 -0 1 1 2 0 -0 1 -1 -3 -2 2 1 2 -0 2 -0 0 1 -2 4 1 -1 1 -1 -1 -3 -1 -3 1 -0 -1 0 -1 -2 -4 4 1 4 -1 8
0 -1 -3 -10 -2 -3 -2 0 -0 -1 2 1 -0 0 -0 0 1 2 0 -0 1 0 -1 -0 1 1 1 1 1 2 4 -0 3 0 1 0 1 1 -0 -2 -2 -1 -2 1 -4 -2 -11 3 -3 4 -5 -1 1 1
-2 1 1 -8 -3 -2 -1 1 0 0 2 -1 0 -1 -0 1 0 0 -2 -0 -2 -1 -1 -4 2 3 -0 2 1 1 3 -0 -1 -3 -2 -1 0 -2 0 -3 -1 -1 -1 -1 -4 -2 8 -11 -4 5 -0 5 3 -0
0 -1 -9 -3 -2 -1 0 1 -0 -0 1 -2 1 0 -0 1 -0 -1 -2 -1 -1 0 0 -3 1 1 0 1 1 -1 5 -1 -1 -2 -1 1 1 4 -0 -1 -1 3 3 7 -9 -0 5 0 -1 1 7 2 3 4
2 1 -7 -2 -1 1 1 0 -0 1 -0 0 1 1 1 1 0 -2 -1 -1 4 -2 1 -4 -5 -1 -2 1 1 1 3 0 0 -1 -1 -0 -2 -3 -1 -1 -3 -1 1 2 3 -0 -6 2 -2 1 1 -2 -2 -1
2 -6 -6 -1 -1 1 0 2 0 1 0 1 -1 2 3 -0 -4 0 -3 -3 2 -2 -0 -2 -6 -2 -2 -1 -2 1 3 2 1 0 0 -0 -0 0 -2 -3 -1 -0 -2 2 1 7 5 4 5 0 2 1 2 -2
-0 -11 -0 -1 0 0 2 1 -0 0 1 0 0 1 2 -2 -1 0 -2 -1 2 0 -2 -1 -2 -5 -3 1 -1 -1 3 -1 1 -1 -0 -2 -2 -3 -5 -1 -0 -1 2 -2 -3 2 3 1 -1 0 -0 1 1 5
-7 -2 -5 0 -1 1 1 -1 -0 1 1 2 3 0 -1 -1 1 -2 -5 2 2 0 -2 -2 1 -4 0 -0 -2 -1 1 0 -1 -4 0 -3 -3 -2 -1 1 2 -1 1 -0 -3 -9 -6 -1 -0 -0 4 6 3 4
-1 -5 1 -0 -1 1 -1 1 2 -0 1 2 -0 -1 -1 1 -1 -2 -1 -3 -1 -3 -1 1 -1 -1 2 -2 -0 1 -1 -0 -2 -6 -2 -1 -3 -2 1 1 1 2 2 2 2 3 5 4 2 3 3 3 3 1
-6 4 1 -0 -0 -3 -0 2 0 1 2 0 -1 -2 -0 -1 -2 -5 -2 -2 -3 -1 -1 -1 -2 -0 -2 1 2 -2 -0 -4 -3 0 -5 -1 -5 -0 1 -1 0 1 3 3 2 3 3 5 4 -1 1 3 1 2
2 -1 -3 -2 -3 -0 -0 1 0 2 1 1 -2 -2 -3 1 -8 -4 -2 -5 -2 -0 -1 -3 -6 0 -0 2 1 -1 -2 -3 1 -4 -2 -4 -1 -1 0 -1 1 2 3 2 2 1 4 -0 -0 0 2 2 2 0
2 -5 -3 -0 1 -2 -0 2 3 1 1 -1 -2 -4 -6 -4 -2 -3 -2 -2 0 1 -0 0 -1 2 -0 1 0 -1 -3 -4 -2 -1 -4 -2 -0 -1 -0 -1 1 2 2 1 -1 1 -1 -1 -0 3 1 0 1 -1
-6 3 4 2 0 1 2 0 0 2 -2 -2 -2 -4 -1 -0 0 -1 -1 -1 0 -0 -2 -1 -1 2 -1 0 -0 -2 -5 -2 -3 -4 -2 -0 1 -0 -1 -2 2 4 1 0 -1 -1 -1 -2 -1 1 1 -1 1 2
3 4 -1 1 -1 1 1 2 4 -1 -2 -2 -2 -2 0 0 0 -0 -1 -0 1 -2 1 0 -0 -2 -2 0 -2 -2 -3 -3 -5 -1 0 -0 1 -0 -1 -3 2 4 1 1 -0 -1 -1 -2 -0 -0 2 0 2 1
4 -5 -0 -1 -1 -1 2 3 -1 -3 -3 -2 -1 1 -1 -1 -2 -2 0 0 -2 0 -1 0 -1 -8 -1 -2 -1 -1 -3 -1 -1 0 1 1 -0 -1 -2 -2 0 3 1 -1 -1 -0 -2 -2 2 2 -2 -0 1 0
-0 0 -2 0 1 3 2 -2 -3 -1 -2 -1 -0 -1 -0 -2 -2 -0 -0 -2 -0 0 -0 -2 1 -1 -1 -1 -3 -2 -0 0 1 0 1 0 0 -2 -0 -0 -1 3 -1 -1 1 -1 2 3 1 -1 -0 1 1 -1
-1 -1 1 2 7 -2 -4 -2 -0 -3 -1 0 1 1 -2 -2 1 -0 -1 -1 3 -1 -1 0 -1 -1 -2 -1 -1 -0 1 -2 -1 -1 1 -0 -1 -1 -0 -0 -1 2 3 1 -0 2 1 0 0 -1 0 1 -0 -1
5 4 5 -0 -3 -4 -2 -1 -3 0 -1 0 0 -1 -0 0 0 -1 1 2 -0 -1 1 -0 -4 -2 -2 -1 0 0 0 -1 -1 -0 0 -1 -0 -1 1 -0 -1 -1 1 1 2 1 0 -0 -0 0 0 -0 1 -1
9 1 -2 1 -1 -3 -2 -0 -0 -1 0 -1 -0 -1 -1 -0 -0 1 0 0 -1 -1 -2 -2 -3 -2 -2 0 1 0 -1 -0 -1 0 -1 -1 -0 -3 -3 -2 -0 2 0 2 2 -0 0 -1 -0 0 1 -1 -0 -1
-4 2 3 -0 -2 -1 -2 -1 -1 1 -1 -1 -0 -0 0 0 0 1 1 0 -2 -3 -2 -2 -2 -2 0 1 -1 -0 -0 0 -0 -0 -1 -2 -1 -1 -1 -0 -0 1 0 1 2 0 -1 0 0 -1 -0 1 2 2
1 2 -2 -1 -2 -0 -1 1 0 -0 -2 -0 0 0 -0 -0 1 -0 -1 -0 -3 -2 -1 -1 -0 1 1 1 -1 -0 0 -1 -0 0 -1 -0 -0 -0 -1 1 2 2 -1 1 0 -0 -0 1 2 -0 -0 0 -0 -0
0 -2 -1 -2 -1 -1 0 -1 -0 -0 -0 -0 -1 -1 -1 0 1 1 -2 -1 -2 -2 -1 1 1 1 1 0 -1 1 -0 -1 -1 -2 -1 -0 -0 -1 -1 1 1 -1 -2 1 0 -0 -1 -0 2 0 -0 0 0 0
-5 -2 -2 -0 1 -2 -2 -1 -0 -0 -0 0 -1 -2 -1 0 -1 0 -2 -2 -1 -1 0 1 -1 -0 0 1 -0 0 -1 0 -0 1 0 -1 -0 0 -0 -1 -3 -1 -0 1 1 -1 -2 0 -0 0 -0 0 1 1
-5 -1 -1 0 0 -2 -1 -1 -1 -2 -1 -0 -2 0 1 -0 -1 -4 -3 -1 -1 -2 -3 -2 -3 -2 -2 -1 -0 -0 -1 -0 -3 -2 -1 -1 -1 -3 -3 -2 -1 -1 -0 1 -1 -1 0 1 -1 -2 -1 -1 -1 -1
-3 -1 1 1 -0 -1 -0 0 1 -1 -0 -1 -1 0 -2 -1 -2 -5 -0 -1 -0 1 -0 1 -1 -1 1 -1 -2 0 1 -0 -1 -0 -1 -2 -1 0 0 -0 -0 -0 -0 1 1 -1 1 0 1 -0 0 1 1 0
0 -0 -3 -0 -1 -0 -2 0 -0 -1 -2 -0 1 -2 -3 -6 -7 -0 -1 -0 -0 -0 -1 -2 -1 0 -1 -1 1 1 -1 -0 -1 1 2 1 -0 -1 -1 -1 -1 -0 0 1 0 -1 -0 -0 -0 0 1 1 1 3
-1 0 -0 -0 0 0 -0 -1 -1 -0 1 -0 -1 -1 -2 -1 -0 -1 -0 -0 -0 -1 -1 -1 -2 -1 0 -0 -1 -1 -0 -1 -2 -1 0 1 0 1 1 1 0 1 1 1 1 -0 -0 -1 -0 1 1 1 1 -0
-0 0 -0 -0 -1 -1 -0 -1 -0 0 -2 0 1 -1 -2 -3 -1 -0 -0 -0 -0 1 2 1 2 1 1 1 0 -1 -1 -2 -2 -1 -0 -1 -1 -1 -1 -0 -0 -0 -1 -1 -1 -1 -0 0 2 4 3 -0 -1 -0
-0 0 0 -0 -1 -0 -1 -0 -0 -0 2 -0 2 -1 -2 -4 -7 -4 -1 1 1 -0 -2 -2 -1 1 0 -0 -1 0 -1 -0 -0 -0 -0 -0 -0 -1 -0 -1 -0 -0 0 1 1 1 1 0 -0 -1 -1 -1 -1 -1
1 -0 -1 -1 -0 -0 -0 -1 0 0 0 0 0 1 0 -1 -4 1 0 0 1 0 2 0 -2 -1 2 1 1 1 -0 -0 0 0 -0 0 0 -1 -1 -1 -1 -0 0 0 -0 -0 -1 -1 -2 -2 -2 -1 -0 -0
-1 -1 -0 -0 -0 0 0 0 0 -0 -0 -0 -0 -0 -0 -1 -3 -1 -1 -0 -1 -1 -1 0 2 1 0 -1 0 1 -0 1 1 0 -0 -0 -0 -0 -0 -1 -1 -1 -1 -1 -1 -1 -1 -1 -1 -1 -1 -1 -1 -1
Height
1499 1505 1510 1515 1520 1525 1527 1528 1528 1528 1528 1528 1527 1527 1526 1526 1525 1525 1523 1522 1522 1521 1517 1516 1516 1515 1515 1515 1518 1511 1508 1504 1502 1506 1505 1510 1509 1508 1508 1495 1494 1503 1499 1484 1471 1465 1462 1468 1457 1457 1466 1454 1444 1434
1495 1500 1505 1511 1517 1521 1524 1526 1526 1525 1525 1525 1525 1525 1524 1523 1522 1521 1520 1519 1518 1518 1516 1514 1512 1511 1511 1513 1514 1512 1512 1510 1508 1509 1509 1504 1499 1509 1510 1508 1497 1505 1506 1504 1492 1477 1477 1474 1472 1470 1463 1453 1444 1438
1489 1495 1500 1506 1513 1517 1521 1523 1523 1524 1524 1523 1523 1522 1521 1520 1519 1518 1517 1516 1515 1513 1509 1509 1509 1510 1510 1511 1513 1513 1510 1509 1508 1508 1505 1502 1503 1498 1503 1506 1504 1501 1501 1502 1495 1484 1480 1473 1472 1468 1461 1454 1447 1442
1483 1489 1493 1501 1508 1513 1518 1520 1521 1522 1522 1521 1521 1519 1518 1517 1516 1514 1514 1513 1513 1512 1511 1509 1509 1509 1510 1511 1512 1512 1510 1509 1507 1505 1504 1500 1499 1499 1500 1503 1506 1508 1503 1501 1495 1486 1477 1473 1473 1468 1462 1455 1449 1443
1478 1484 1490 1498 1504 1510 1514 1517 1518 1519 1519 1518 1518 1516 1515 1514 1512 1512 1511 1512 1512 1514 1511 1507 1506 1507 1507 1508 1509 1509 1508 1507 1506 1505 1505 1505 1503 1502 1503 1505 1511 1508 1508 1508 1498 1490 1490 1477 1470 1465 1459 1455 1449 1443
1474 1481 1486 1496 1502 1507 1511 1514 1515 1516 1516 1515 1515 1514 1512 1511 1510 1511 1511 1513 1512 1512 1510 1510 1507 1507 1507 1507 1505 1505 1506 1505 1505 1505 1506 1505 1505 1505 1505 1509 1507 1505 1504 1502 1495 1490 1485 1476 1470 1465 1459 1453 1449 1445
1471 1478 1486 1494 1500 1504 1507 1510 1511 1512 1513 1513 1512 1511 1510 1509 1510 1511 1513 1512 1512 1511 1511 1510 1506 1507 1507 1505 1504 1502 1502 1502 1503 1504 1504 1504 1504 1504 1506 1510 1505 1501 1498 1494 1491 1487 1480 1477 1473 1467 1462 1458 1454 1451
1469 1476 1486 1492 1498 1502 1505 1507 1508 1509 1511 1510 1510 1509 1509 1509 1510 1511 1511 1511 1511 1509 1509 1512 1509 1507 1507 1505 1504 1502 1501 1501 1501 1501 1503 1503 1505 1505 1510 1504 1502 1499 1494 1491 1489 1486 1482 1478 1473 1468 1465 1461 1457 1454
1466 1475 1485 1492 1496 1501 1504 1504 1505 1507 1508 1508 1508 1508 1509 1509 1510 1511 1511 1511 1510 1512 1509 1512 1517 1518 1507 1506 1503 1502 1501 1503 1502 1501 1503 1505 1508 1515 1506 1503 1500 1497 1495 1490 1487 1485 1482 1479 1476 1473 1469 1466 1462 1457
1468 1477 1485 1491 1497 1500 1501 1502 1504 1505 1506 1506 1507 1507 1507 1509 1509 1511 1511 1511 1509 1509 1510 1513 1515 1514 1511 1507 1504 1505 1501 1501 1507 1505 1504 1507 1510 1504 1504 1501 1499 1495 1492 1489 1486 1482 1481 1479 1477 1475 1471 1466 1463 1459
1471 1478 1483 1489 1495 1498 1500 1501 1502 1503 1505 1505 1504 1505 1508 1508 1509 1511 1511 1510 1512 1514 1514 1515 1515 1514 1511 1512 1508 1506 1503 1503 1511 1508 1506 1514 1510 1503 1501 1499 1496 1494 1491 1489 1487 1486 1483 1481 1478 1475 1471 1467 1464 1461
1471 1477 1482 1488 1493 1496 1498 1500 1500 1502 1502 1503 1504 1504 1507 1508 1510 1512 1519 1516 1515 1519 1517 1516 1516 1514 1511 1510 1508 1506 1505 1505 1510 1504 1511 1513 1504 1501 1499 1497 1495 1492 1490 1488 1486 1485 1482 1480 1476 1474 1473 1470 1468 1466
1470 1476 1483 1487 1491 1494 1496 1498 1499 1500 1500 1502 1502 1505 1506 1512 1519 1518 1524 1522 1521 1517 1517 1517 1516 1514 1510 1510 1507 1505 1506 1509 1503 1514 1511 1506 1502 1501 1499 1498 1495 1493 1492 1489 1487 1485 1483 1481 1481 1479 1477 1475 1473 1472
1470 1477 1481 1486 1489 1492 1495 1497 1498 1499 1500 1500 1502 1510 1513 1519 1518 1517 1518 1517 1517 1515 1516 1516 1514 1514 1511 1509 1506 1506 1503 1503 1518 1517 1507 1502 1501 1501 1500 1499 1497 1495 1493 1491 1489 1488 1487 1486 1486 1484 1482 1481 1479 1477
1473 1478 1481 1484 1488 1491 1493 1495 1497 1498 1498 1500 1503 1513 1515 1512 1512 1513 1514 1516 1516 1515 1516 1515 1515 1515 1511 1509 1506 1506 1508 1513 1505 1504 1502 1501 1501 1501 1500 1499 1498 1497 1495 1494 1493 1492 1492 1491 1490 1488 1487 1486 1485 1484
1473 1477 1481 1483 1486 1490 1493 1495 1495 1496 1497 1500 1505 1510 1509 1511 1512 1513 1513 1513 1514 1515 1515 1515 1516 1517 1515 1510 1511 1511 1514 1512 1505 1500 1501 1501 1501 1501 1501 1500 1500 1498 1497 1496 1496 1495 1495 1494 1494 1493 1492 1491 1490 1489
1470 1474 1479 1482 1485 1489 1492 1494 1495 1496 1499 1503 1506 1505 1505 1507 1509 1511 1512 1511 1513 1515 1514 1514 1518 1515 1511 1516 1512 1503 1507 1501 1500 1501 1502 1502 1502 1502 1502 1502 1501 1500 1499 1498 1499 1499 1498 1497 1497 1496 1495 1495 1494 1493
1472 1474 1478 1482 1485 1489 1490 1492 1495 1497 1500 1503 1504 1504 1505 1507 1509 1510 1509 1511 1512 1512 1513 1515 1513 1514 1515 1516 1507 1499 1499 1500 1501 1501 1502 1502 1503 1503 1502 1502 1502 1501 1501 1501 1501 1501 1501 1500 1499 1498 1498 1498 1497 1497
1471 1474 1480 1483 1485 1486 1489 1494 1496 1497 1500 1501 1502 1503 1505 1508 1508 1507 1508 1510 1510 1510 1512 1512 1514 1514 1505 1499 1498 1497 1498 1499 1500 1501 1502 1503 1503 1503 1503 1503 1503 1503 1502 1502 1503 1503 1502 1501 1501 1501 1500 1501 1500 1500
1472 1475 1479 1483 1485 1487 1490 1493 1496 1497 1499 1500 1501 1504 1506 1506 1507 1507 1508 1508 1508 1510 1509 1507 1502 1498 1498 1497 1496 1496 1498 1499 1500 1501 1502 1503 1503 1503 1503 1503 1504 1504 1505 1504 1504 1503 1503 1503 1503 1503 1503 1502 1502 1502
1474 1476 1480 1484 1484 1488 1491 1493 1495 1497 1498 1499 1502 1504 1505 1505 1506 1506 1505 1506 1507 1504 1500 1496 1495 1495 1495 1495 1495 1495 1497 1499 1500 1501 1501 1502 1503 1504 1504 1505 1505 1505 1505 1505 1505 1504 1504 1504 1505 1504 1505 1504 1504 1504
1474 1478 1480 1482 1485 1488 1492 1494 1496 1496 1498 1500 1503 1503 1504 1503 1503 1503 1503 1503 1500 1494 1493 1491 1491 1492 1493 1493 1493 1494 1496 1498 1499 1500 1501 1502 1503 1504 1505 1506 1506 1506 1506 1506 1505 1505 1505 1505 1505 1505 1506 1506 1506 1506
1475 1478 1481 1483 1486 1489 1496 1495 1495 1496 1499 1501 1502 1502 1502 1501 1501 1502 1500 1496 1491 1488 1488 1488 1489 1489 1490 1491 1492 1493 1495 1497 1498 1499 1501 1502 1502 1503 1505 1505 1506 1506 1506 1506 1506 1506 1506 1506 1506 1506 1506 1506 1506 1507
1476 1478 1481 1483 1488 1492 1494 1494 1496 1497 1499 1500 1501 1502 1500 1500 1501 1500 1497 1489 1484 1484 1485 1485 1486 1487 1488 1489 1491 1492 1494 1496 1497 1499 1500 1501 1502 1503 1504 1505 1505 1506 1506 1506 1507 1507 1507 1507 1507 1507 1507 1507 1507 1508
1478 1483 1485 1487 1488 1490 1493 1495 1496 1497 1500 1501 1503 1500 1498 1499 1500 1499 1492 1482 1480 1481 1482 1483 1484 1485 1487 1488 1490 1491 1493 1495 1497 1498 1500 1501 1502 1503 1504 1505 1506 1507 1507 1507 1507 1507 1508 1508 1507 1508 1508 1508 1508 1508
1480 1484 1485 1484 1487 1489 1491 1496 1497 1497 1498 1500 1499 1497 1497 1497 1500 1493 1481 1478 1477 1478 1479 1480 1482 1484 1486 1487 1489 1491 1493 1494 1496 1498 1500 1501 1502 1503 1504 1506 1507 1507 1507 1507 1507 1508 1508 1508 1508 1508 1508 1509 1509 1509
1482 1483 1483 1485 1486 1487 1490 1491 1492 1493 1497 1496 1494 1495 1497 1499 1496 1480 1477 1476 1477 1478 1479 1480 1482 1484 1485 1486 1488 1490 1492 1494 1496 1498 1500 1501 1503 1504 1505 1506 1506 1507 1507 1507 1507 1508 1508 1508 1508 1508 1508 1508 1508 1508
1480 1482 1484 1486 1486 1487 1488 1489 1490 1491 1488 1489 1491 1494 1493 1487 1482 1478 1477 1476 1476 1477 1478 1480 1481 1483 1485 1486 1488 1489 1491 1493 1495 1497 1498 1500 1501 1503 1504 1505 1505 1506 1506 1506 1507 1507 1508 1508 1508 1508 1508 1508 1508 1507
1482 1483 1484 1485 1485 1485 1485 1485 1485 1485 1485 1485 1486 1483 1480 1478 1477 1477 1477 1476 1476 1476 1478 1479 1481 1482 1483 1485 1486 1488 1490 1492 1494 1495 1497 1498 1499 1502 1502 1503 1504 1505 1506 1506 1507 1507 1508 1508 1509 1509 1509 1508 1508 1508
1483 1484 1484 1484 1484 1484 1484 1484 1484 1483 1484 1483 1482 1480 1477 1475 1475 1475 1475 1474 1474 1475 1476 1478 1479 1480 1482 1483 1484 1486 1488 1490 1492 1495 1496 1497 1498 1500 1500 1501 1502 1503 1504 1505 1506 1507 1508 1508 1508 1508 1507 1507 1507 1507
1483 1484 1484 1483 1483 1483 1483 1482 1482 1481 1480 1479 1478 1478 1475 1473 1471 1470 1469 1469 1470 1471 1471 1473 1475 1477 1479 1480 1482 1484 1486 1488 1490 1492 1494 1495 1497 1498 1499 1500 1501 1502 1503 1504 1505 1505 1506 1506 1506 1506 1506 1506 1506 1506
1484 1484 1484 1484 1483 1483 1482 1481 1479 1478 1477 1475 1474 1473 1472 1471 1469 1466 1464 1464 1464 1465 1468 1470 1471 1474 1477 1478 1480 1482 1484 1485 1487 1489 1491 1493 1494 1496 1497 1498 1499 1500 1501 1502 1502 1503 1503 1504 1504 1504 1504 1504 1504 1504
1484 1484 1484 1483 1483 1482 1482 1481 1479 1477 1476 1474 1473 1472 1471 1471 1467 1465 1463 1462 1462 1462 1463 1465 1468 1470 1472 1474 1477 1479 1480 1482 1484 1485 1487 1489 1491 1493 1494 1495 1497 1498 1499 1499 1500 1500 1501 1501 1501 1502 1502 1502 1501 1501